[[{"header":{"parameterUnit":"m.s-1","parameterCategory":1,"la1":30.2991,"la2":30.254,"lo1":-89.0895,"lo2":-89.0444,"dy":0.0017,"dx":0.0017,"nx":28,"ny":28,"refTime":"2025-06-16T21:00:00:Z","depth":0,"parameterNumber":2,"parameterNumberName":"U-component_of_WINDS"},"data":[0,0,0,0,0,0,0,0,0,0,0,0,0,0,0,0,0,0,0,0,0,0,0,0,0,0,0,0,0,0,0,0,0,0,0,0,0,0,0,0,0,0,0,0,0,0,0,0,0,0,0,0,0,0,0,0,0,0,0.4934,0.4933,0,0.4843,0.4842,0.4841,0.476,0.4759,0.4758,0.4757,0.4666,0.4665,0.4663,0,0,0,0,0,0,0,0,0,0,0,0,0,0.5039,0.5037,0.4935,0.4933,0.4932,0.4844,0.4842,0.4841,0.476,0.4759,0.4758,0.4757,0.4667,0.4665,0.4663,0,0,0,0,0,0,0,0,0,0,0,0,0,0.4975,0.5037,0.4935,0.4881,0.4875,0.4844,0.4842,0.4841,0.4761,0.4759,0.4758,0.4756,0.4667,0.4665,0.4663,0.4677,0,0,0.4656,0.4655,0,0,0,0,0,0,0,0,0.4979,0.4972,0.489,0.4885,0.4878,0.4812,0.4846,0.4786,0.4761,0.4804,0.4757,0.4756,0.4716,0.4709,0.4695,0.4673,0.4669,0.4655,0.4654,0.4653,0.4652,0,0,0,0,0,0,0,0.4984,0.4975,0.4898,0.4889,0.4882,0.4862,0.4851,0.4834,0.4769,0.48,0.4794,0.4785,0.4712,0.4698,0.4693,0.4668,0.4655,0.4653,0.4652,0.4651,0.4651,0.4652,0,0,0,0,0,0,0.4996,0.4979,0.4901,0.4896,0.4926,0.4861,0.4849,0.4835,0.4769,0.4758,0.4786,0.4781,0.4703,0.4696,0.4689,0.4701,0.4653,0.4651,0.465,0.4649,0.4651,0.4652,0,0,0,0,0,0,0.4999,0.499,0.4905,0.4936,0.4923,0.4861,0.4845,0.4834,0.4819,0.4758,0.4746,0.4783,0.4701,0.4693,0.468,0.4696,0.465,0.4648,0.4648,0.465,0.4652,0.4725,0,0,0,0,0,0,0.5002,0.4991,0.4996,0.4937,0.4922,0.4898,0.4846,0.4833,0.4815,0.4808,0.4752,0.4742,0.4699,0.4684,0.4678,0.4692,0.4646,0.4646,0.4649,0.4651,0.4721,0.4729,0.4736,0,0,0,0,0,0.5006,0.5021,0.4997,0.4988,0.4927,0.4899,0.489,0.4841,0.4817,0.4821,0.4782,0.4744,0.4696,0.4684,0.4676,0.469,0.4645,0.4648,0.4651,0.4717,0.4728,0.4736,0,0,0,0,0,0,0.5085,0.5012,0.4985,0.4981,0.4946,0.4885,0.4889,0.4854,0.4826,0.482,0.476,0.4749,0.4743,0.4715,0.4703,0.47,0.4665,0.4667,0.4718,0.4727,0.4735,0.4742,0.4644,0,0,0,0,0,0.5102,0.5085,0.5022,0.5025,0.5009,0.4952,0.4938,0.4903,0.4865,0.485,0.481,0.4775,0.4752,0.4738,0.4714,0.4716,0.4703,0.4722,0.473,0.4737,0.4739,0.4737,0.4745,0.4663,0.4663,0.4663,0,0,0.5137,0.5095,0.5088,0.504,0.5009,0.4993,0.4941,0.4926,0.4913,0.4848,0.4833,0.4803,0.476,0.4755,0.4751,0.4732,0.4759,0.4741,0.4747,0.4745,0.4741,0.4749,0.4756,0.4665,0.4664,0.4664,0,0,0.5192,0.5159,0.5157,0.5127,0.508,0.5042,0.5042,0.4985,0.4962,0.4946,0.4897,0.4881,0.4843,0.4814,0.4795,0.4838,0.4801,0.4831,0.4872,0.4871,0.4878,0.4883,0.4898,0.4904,0.4834,0.4834,0.4834,0,0.5241,0.5214,0.516,0.5148,0.5128,0.5067,0.5065,0.5038,0.4987,0.4974,0.4954,0.4903,0.4871,0.4857,0.4868,0.4854,0.4851,0.4837,0.4881,0.4886,0.489,0.4904,0.4909,0.4838,0.4837,0.4837,0.4837,0,0.5277,0.5259,0.5263,0.5213,0.5194,0.5187,0.5131,0.5118,0.5084,0.5048,0.5033,0.4991,0.4956,0.4951,0.4918,0.4933,0.4922,0.4892,0.4856,0.4903,0.4914,0.4919,0.4843,0.4842,0.4841,0.484,0,0,0.5379,0.5299,0.5302,0.5278,0.5222,0.5207,0.5197,0.5162,0.5152,0.5118,0.5108,0.5076,0.5048,0.5025,0.4989,0.4988,0.5024,0.4958,0.4956,0.4971,0.5036,0.5059,0.5066,0.4999,0.5,0.5001,0.504,0,0.5425,0.5402,0.5353,0.5345,0.5328,0.527,0.5261,0.5225,0.5191,0.5172,0.5134,0.5112,0.5077,0.5063,0.506,0.502,0.5036,0.5017,0.4989,0.4989,0.5001,0.5072,0.5095,0.5134,0.5044,0.5045,0.5045,0,0.5474,0.5443,0.5434,0.5378,0.5369,0.5361,0.5325,0.5307,0.5265,0.5241,0.5216,0.5175,0.5161,0.5128,0.5107,0.5095,0.5081,0.506,0.506,0.5055,0.502,0.5068,0.5145,0.5151,0.5052,0.5051,0.5051,0,0.5549,0.5505,0.5493,0.5475,0.541,0.5406,0.5378,0.5335,0.5317,0.5286,0.5273,0.5241,0.5224,0.52,0.5151,0.5132,0.5136,0.5099,0.5115,0.5116,0.5118,0.5119,0.5194,0.511,0.511,0.511,0.511,0,0.5604,0.5601,0.5526,0.5519,0.5513,0.5456,0.5452,0.5419,0.5382,0.5367,0.5315,0.5303,0.524,0.5221,0.5183,0.5171,0.5164,0.5144,0.5134,0.5148,0.515,0.5137,0.5133,0.5112,0.5111,0.5111,0.5111,0,0.5686,0.5636,0.5619,0.5558,0.5543,0.5541,0.5489,0.548,0.5443,0.5425,0.5418,0.536,0.5334,0.5283,0.5244,0.5218,0.5215,0.5197,0.5229,0.5222,0.5241,0.524,0.531,0.5316,0.523,0.523,0.5231,0,0.5725,0.572,0.5659,0.5645,0.5619,0.5598,0.5579,0.5523,0.5505,0.5457,0.5454,0.5424,0.5397,0.5358,0.5312,0.5282,0.5263,0.529,0.5258,0.5272,0.5262,0.5263,0.5262,0.5297,0.5298,0.5299,0.53,0,0.5797,0.5772,0.5747,0.5712,0.5691,0.5661,0.5629,0.562,0.5557,0.554,0.5512,0.5491,0.545,0.5421,0.5383,0.5355,0.5317,0.531,0.5312,0.5326,0.5344,0.5334,0.5247,0.5309,0.5308,0.5307,0.5307,0.5306,0.5858,0.5851,0.5806,0.5779,0.5749,0.5719,0.5707,0.5668,0.5644,0.5606,0.5574,0.5549,0.5507,0.5453,0.5427,0.5407,0.5388,0.5391,0.5392,0.5394,0.5399,0.5348,0.54,0.5399,0.5399,0.5399,0.5399,0,0.5927,0.5895,0.5871,0.5827,0.5805,0.5771,0.5733,0.5717,0.5696,0.5659,0.5633,0.5601,0.5573,0.5524,0.5492,0.5485,0.5466,0.5478,0.5478,0.5472,0.5418,0.5419,0.5493,0.5493,0.5493,0.5493,0.5493,0.5493,0.5961,0.5947,0.5917,0.5887,0.5855,0.5829,0.5811,0.5783,0.5754,0.572,0.5696,0.5664,0.5623,0.5587,0.5559,0.5545,0.5536,0.5553,0.5534,0.5484,0.5476,0.5467,0.5468,0.5551,0.5551,0.5589,0.5589,0.559]},{"header":{"parameterUnit":"m.s-1","parameterCategory":1,"la1":30.2991,"la2":30.254,"lo1":-89.0895,"lo2":-89.0444,"dy":0.0017,"dx":0.0017,"nx":28,"ny":28,"refTime":"2025-06-16T21:00:00:Z","depth":0,"parameterNumber":3,"parameterNumberName":"V-component_of_WINDS"},"data":[0,0,0,0,0,0,0,0,0,0,0,0,0,0,0,0,0,0,0,0,0,0,0,0,0,0,0,0,0,0,0,0,0,0,0,0,0,0,0,0,0,0,0,0,0,0,0,0,0,0,0,0,0,0,0,0,0,0,3.2298,3.23,0,3.248,3.2482,3.2484,3.252,3.2518,3.2517,3.2515,3.2707,3.2714,3.272,0,0,0,0,0,0,0,0,0,0,0,0,0,3.1985,3.1991,3.2298,3.23,3.2303,3.248,3.2482,3.2485,3.252,3.2518,3.2516,3.2515,3.2705,3.2713,3.2721,0,0,0,0,0,0,0,0,0,0,0,0,0,3.214,3.1993,3.2298,3.2341,3.2347,3.2479,3.2482,3.2485,3.252,3.2518,3.2516,3.2514,3.2703,3.2712,3.2722,3.2825,0,0,3.2751,3.2755,0,0,0,0,0,0,0,0,3.2131,3.2151,3.2333,3.2339,3.2345,3.2475,3.2442,3.2599,3.2521,3.2455,3.2515,3.2513,3.2632,3.2647,3.2687,3.2834,3.2842,3.2752,3.2758,3.2762,3.2765,0,0,0,0,0,0,0,3.212,3.2143,3.237,3.2335,3.2343,3.2353,3.2373,3.2472,3.2554,3.246,3.2463,3.2484,3.2635,3.2677,3.2691,3.2845,3.2752,3.276,3.2766,3.277,3.3085,3.3087,0,0,0,0,0,0,3.2101,3.2134,3.2364,3.2376,3.223,3.2361,3.2382,3.2436,3.2553,3.2568,3.2486,3.2485,3.2662,3.268,3.2698,3.2826,3.2762,3.2771,3.2777,3.3082,3.3086,3.3088,0,0,0,0,0,0,3.2094,3.2121,3.2357,3.2256,3.2287,3.2368,3.2428,3.244,3.2482,3.2572,3.2587,3.2513,3.2661,3.2685,3.2792,3.2833,3.2776,3.2784,3.3079,3.3083,3.3087,3.3082,0,0,0,0,0,0,3.2085,3.2118,3.2158,3.2256,3.2292,3.2447,3.243,3.2445,3.2498,3.2499,3.2602,3.2617,3.2661,3.2778,3.2802,3.2845,3.2792,3.3076,3.3081,3.3086,3.3079,3.3085,3.3091,0,0,0,0,0,3.2074,3.2151,3.2159,3.2187,3.2342,3.2449,3.247,3.2517,3.2501,3.2542,3.2599,3.2613,3.2824,3.2788,3.2816,3.2863,3.3074,3.308,3.3085,3.3076,3.3084,3.3091,0,0,0,0,0,0,3.2057,3.2164,3.2175,3.2286,3.2358,3.2455,3.2508,3.2524,3.2604,3.2601,3.2659,3.2682,3.2786,3.2836,3.2794,3.2968,3.2948,3.296,3.2932,3.294,3.2946,3.2932,3.28,0,0,0,0,0,3.2065,3.2142,3.2232,3.2321,3.2357,3.2426,3.2474,3.2504,3.2582,3.2613,3.2678,3.2755,3.2838,3.2892,3.2974,3.3086,3.3109,3.3132,3.3138,3.3142,3.3152,3.3214,3.3225,3.3107,3.3107,3.3107,0,0,3.2085,3.2153,3.2199,3.232,3.2379,3.2458,3.2451,3.2535,3.2595,3.2627,3.2731,3.2782,3.2871,3.2981,3.3033,3.3025,3.3189,3.315,3.3152,3.316,3.3221,3.3232,3.3242,3.3111,3.311,3.311,0,0,3.2161,3.222,3.23,3.2359,3.2448,3.2493,3.2512,3.2606,3.264,3.2746,3.2771,3.2844,3.2986,3.3048,3.3098,3.3195,3.3211,3.3221,3.3251,3.3311,3.3321,3.3329,3.3363,3.3375,3.323,3.323,3.323,0,3.2175,3.2293,3.234,3.2422,3.2474,3.2505,3.2586,3.2642,3.2754,3.279,3.2779,3.2958,3.302,3.3144,3.3168,3.3208,3.3232,3.3209,3.3315,3.3324,3.3333,3.3366,3.3379,3.323,3.323,3.323,3.323,0,3.2305,3.2386,3.2441,3.2545,3.2604,3.2685,3.2746,3.28,3.2825,3.2871,3.2978,3.3053,3.315,3.3182,3.3209,3.3311,3.3303,3.3303,3.3284,3.3344,3.3376,3.3389,3.3231,3.3231,3.3231,3.323,0,0,3.2377,3.2504,3.2523,3.257,3.2669,3.2734,3.2817,3.2909,3.2955,3.3031,3.3102,3.3221,3.3221,3.3278,3.3312,3.3364,3.3436,3.3358,3.3361,3.337,3.3552,3.3551,3.3565,3.3447,3.3449,3.3452,3.3545,0,3.2464,3.261,3.2654,3.2778,3.2854,3.2883,3.2955,3.3025,3.307,3.3142,3.3194,3.3277,3.3271,3.3305,3.3359,3.3415,3.3473,3.341,3.3515,3.3518,3.3491,3.3582,3.3582,3.3666,3.3558,3.356,3.3562,0,3.2586,3.266,3.2791,3.2879,3.2912,3.2976,3.3064,3.3132,3.3212,3.3241,3.3303,3.3332,3.3421,3.3396,3.352,3.3476,3.3522,3.3556,3.356,3.3572,3.3543,3.3596,3.3694,3.3707,3.3582,3.358,3.3579,0,3.2623,3.2757,3.2852,3.2892,3.2997,3.3041,3.3088,3.3165,3.3217,3.3295,3.3329,3.3417,3.3465,3.3533,3.3584,3.3562,3.3703,3.3684,3.3731,3.373,3.376,3.3757,3.3866,3.379,3.3789,3.3789,3.3789,0,3.2716,3.2794,3.287,3.2929,3.3018,3.3068,3.3155,3.3203,3.3271,3.3341,3.3372,3.3437,3.3501,3.3575,3.3617,3.3712,3.3734,3.3761,3.3771,3.3758,3.3755,3.3789,3.3784,3.3793,3.3792,3.3791,3.379,0,3.2773,3.2827,3.2932,3.3022,3.3047,3.3108,3.3187,3.3245,3.3291,3.3378,3.3402,3.3475,3.3563,3.3621,3.3735,3.3762,3.3867,3.3876,3.3839,3.3844,3.3888,3.3882,3.4023,3.4044,3.3953,3.3953,3.3954,0,3.2829,3.2889,3.2985,3.3032,3.3078,3.3154,3.3207,3.3259,3.3313,3.3407,3.3454,3.3544,3.3618,3.3758,3.3822,3.3909,3.3921,3.3964,3.3934,3.3919,3.3921,3.3916,3.3923,3.3968,3.3969,3.397,3.397,0,3.2921,3.2944,3.3017,3.31,3.3161,3.323,3.3299,3.3336,3.34,3.3459,3.3548,3.3606,3.372,3.3809,3.3901,3.3951,3.3972,3.3979,3.3994,3.3982,3.3957,3.3971,3.3851,3.3975,3.3975,3.3974,3.3974,3.3974,3.2979,3.3033,3.3108,3.3189,3.3246,3.3309,3.3367,3.3419,3.3494,3.3589,3.3616,3.3709,3.3787,3.3912,3.3964,3.4038,3.4034,3.4056,3.4062,3.4067,3.4067,3.3945,3.4056,3.4055,3.4055,3.4055,3.4055,0,3.3072,3.3121,3.3195,3.3288,3.3352,3.3363,3.3439,3.3492,3.3572,3.3642,3.3714,3.3816,3.3902,3.3972,3.4061,3.4108,3.4119,3.4129,3.4127,3.4138,3.4066,3.4043,3.4118,3.4118,3.4118,3.4118,3.4118,3.4118,3.3128,3.322,3.3252,3.3373,3.3423,3.3512,3.3554,3.3613,3.3668,3.378,3.3851,3.3895,3.3965,3.406,3.4139,3.4158,3.4189,3.4197,3.4218,3.415,3.4143,3.4136,3.4115,3.4204,3.4204,3.4284,3.4284,3.4285]}]]